TimeCST,TemperatureF,Dew PointF,Humidity,Sea Level PressureIn,VisibilityMPH,Wind Direction,Wind SpeedMPH,Gust SpeedMPH,PrecipitationIn,Events,Conditions,WindDirDegrees,DateUTC
12:15 AM,10.4,0.9,65,29.75,10.0,NW,8.1,-,N/A,,Overcast,310,2013-02-19 06:15:00
12:35 AM,9.9,-0.0,64,29.76,10.0,NNW,11.5,17.3,N/A,,Overcast,330,2013-02-19 06:35:00
12:55 AM,9.3,-1.1,63,29.78,10.0,North,16.1,20.7,N/A,,Overcast,360,2013-02-19 06:55:00
1:15 AM,9.0,-1.1,64,29.78,10.0,NNW,15.0,24.2,N/A,,Overcast,340,2013-02-19 07:15:00
1:35 AM,8.6,-1.3,64,29.79,10.0,NNW,12.7,20.7,N/A,,Overcast,330,2013-02-19 07:35:00
1:55 AM,8.1,-1.8,64,29.80,10.0,NNW,17.3,21.9,N/A,,Overcast,340,2013-02-19 07:55:00
2:15 AM,7.7,-2.0,65,29.80,10.0,NNW,11.5,23.0,N/A,,Overcast,340,2013-02-19 08:15:00
2:35 AM,6.8,-3.5,63,29.81,10.0,North,15.0,31.1,N/A,,Overcast,350,2013-02-19 08:35:00
2:55 AM,6.3,-3.3,65,29.82,10.0,North,12.7,21.9,N/A,,Overcast,350,2013-02-19 08:55:00
3:15 AM,5.0,-4.5,65,29.84,10.0,NNW,16.1,23.0,N/A,,Overcast,330,2013-02-19 09:15:00
3:35 AM,4.1,-6.2,63,29.85,10.0,NNW,17.3,26.5,N/A,,Overcast,340,2013-02-19 09:35:00
3:55 AM,3.6,-6.9,62,29.86,10.0,NNW,12.7,-,N/A,,Overcast,340,2013-02-19 09:55:00
4:15 AM,3.0,-7.2,62,29.86,10.0,North,13.8,20.7,N/A,,Overcast,350,2013-02-19 10:15:00
4:35 AM,2.3,-7.6,63,29.87,10.0,NNW,16.1,28.8,N/A,,Overcast,340,2013-02-19 10:35:00
4:55 AM,1.8,-8.5,62,29.88,10.0,NNW,12.7,24.2,N/A,,Overcast,330,2013-02-19 10:55:00
5:15 AM,1.0,-9.4,62,29.89,10.0,North,15.0,26.5,N/A,,Overcast,360,2013-02-19 11:15:00
5:55 AM,-0.6,-10.8,62,29.92,10.0,NNW,19.6,29.9,N/A,,Overcast,330,2013-02-19 11:55:00
6:15 AM,-0.8,-10.8,62,29.93,10.0,NNW,17.3,23.0,N/A,,Overcast,330,2013-02-19 12:15:00
6:35 AM,-1.3,-11.2,63,29.94,10.0,NNW,17.3,21.9,N/A,,Overcast,340,2013-02-19 12:35:00
6:55 AM,-1.7,-11.7,62,29.95,10.0,NNW,15.0,18.4,N/A,,Overcast,340,2013-02-19 12:55:00
7:15 AM,-2.4,-12.3,63,29.96,10.0,NW,16.1,21.9,N/A,,Overcast,320,2013-02-19 13:15:00
7:35 AM,-2.7,-13.2,61,29.98,10.0,NNW,11.5,18.4,N/A,,Mostly Cloudy,340,2013-02-19 13:35:00
7:55 AM,-2.7,-13.0,62,29.99,10.0,NNW,13.8,27.6,N/A,,Overcast,340,2013-02-19 13:55:00
8:15 AM,-2.6,-13.0,61,29.99,10.0,NNW,15.0,20.7,N/A,,Overcast,330,2013-02-19 14:15:00
8:35 AM,-2.4,-12.6,62,30.00,10.0,North,13.8,25.3,N/A,,Overcast,350,2013-02-19 14:35:00
8:55 AM,-2.2,-12.6,61,30.01,10.0,NNW,15.0,-,N/A,,Overcast,340,2013-02-19 14:55:00
9:15 AM,-1.7,-12.5,60,30.01,10.0,NNW,16.1,20.7,N/A,,Overcast,330,2013-02-19 15:15:00
9:35 AM,-1.7,-12.5,60,30.02,10.0,North,12.7,21.9,N/A,,Overcast,350,2013-02-19 15:35:00
9:55 AM,-0.8,-11.7,60,30.03,10.0,NNW,16.1,20.7,N/A,,Overcast,330,2013-02-19 15:55:00
10:15 AM,0.5,-11.4,57,30.03,10.0,NNW,16.1,25.3,N/A,,Overcast,330,2013-02-19 16:15:00
10:35 AM,1.0,-11.4,56,30.04,10.0,NNW,15.0,25.3,N/A,,Overcast,340,2013-02-19 16:35:00
10:55 AM,1.4,-10.7,57,30.04,10.0,NW,18.4,24.2,N/A,,Overcast,320,2013-02-19 16:55:00
11:15 AM,2.1,-10.5,56,30.05,10.0,NNW,13.8,18.4,N/A,,Overcast,330,2013-02-19 17:15:00
11:35 AM,2.5,-10.5,55,30.05,10.0,NW,11.5,19.6,N/A,,Overcast,310,2013-02-19 17:35:00
11:55 AM,3.0,-10.3,54,30.06,10.0,NW,15.0,21.9,N/A,,Overcast,320,2013-02-19 17:55:00
12:15 PM,5.0,-8.5,54,30.06,10.0,North,15.0,23.0,N/A,,Overcast,350,2013-02-19 18:15:00
12:35 PM,4.6,-9.4,52,30.07,10.0,NW,15.0,24.2,N/A,,Overcast,320,2013-02-19 18:35:00
12:55 PM,5.2,-9.0,52,30.07,10.0,North,16.1,23.0,N/A,,Overcast,350,2013-02-19 18:55:00
1:15 PM,6.3,-8.0,52,30.07,10.0,NW,20.7,26.5,N/A,,Scattered Clouds,320,2013-02-19 19:15:00
1:35 PM,6.6,-8.0,51,30.08,10.0,NNW,18.4,24.2,N/A,,Scattered Clouds,330,2013-02-19 19:35:00
1:55 PM,6.4,-8.0,52,30.09,10.0,NNW,15.0,-,N/A,,Mostly Cloudy,340,2013-02-19 19:55:00
2:15 PM,7.3,-8.1,49,30.10,10.0,NNW,13.8,24.2,N/A,,Mostly Cloudy,340,2013-02-19 20:15:00
2:35 PM,7.7,-7.6,50,30.11,10.0,NNW,15.0,20.7,N/A,,Scattered Clouds,330,2013-02-19 20:35:00
2:55 PM,8.1,-7.8,49,30.12,10.0,NNW,16.1,24.2,N/A,,Clear,330,2013-02-19 20:55:00
3:15 PM,8.4,-7.1,49,30.13,10.0,NNW,16.1,-,N/A,,Clear,340,2013-02-19 21:15:00
3:35 PM,8.6,-7.1,49,30.14,10.0,North,13.8,-,N/A,,Clear,360,2013-02-19 21:35:00
3:55 PM,8.6,-6.7,50,30.16,10.0,NNW,15.0,19.6,N/A,,Clear,340,2013-02-19 21:55:00
4:15 PM,8.8,-6.9,49,30.16,10.0,North,17.3,23.0,N/A,,Clear,360,2013-02-19 22:15:00
4:35 PM,8.2,-6.3,52,30.18,10.0,NNW,13.8,21.9,N/A,,Clear,330,2013-02-19 22:35:00
4:55 PM,8.1,-6.9,51,30.19,10.0,North,11.5,19.6,N/A,,Clear,350,2013-02-19 22:55:00
5:15 PM,7.5,-6.9,52,30.20,10.0,North,8.1,23.0,N/A,,Clear,350,2013-02-19 23:15:00
6:35 PM,5.9,-6.9,56,30.24,10.0,NNW,8.1,-,N/A,,Clear,340,2013-02-20 00:35:00
7:35 PM,5.2,-6.5,59,30.27,10.0,North,9.2,20.7,N/A,,Clear,360,2013-02-20 01:35:00
7:55 PM,5.2,-6.3,59,30.27,10.0,North,8.1,16.1,N/A,,Clear,360,2013-02-20 01:55:00
8:15 PM,5.0,-6.2,60,30.27,10.0,North,11.5,19.6,N/A,,Clear,360,2013-02-20 02:15:00
8:35 PM,5.4,-6.0,60,30.28,10.0,North,10.4,-,N/A,,Clear,350,2013-02-20 02:35:00
8:55 PM,5.2,-6.0,60,30.29,10.0,North,9.2,-,N/A,,Clear,360,2013-02-20 02:55:00
9:15 PM,5.0,-5.8,61,30.29,10.0,North,8.1,-,N/A,,Clear,360,2013-02-20 03:15:00
9:35 PM,4.5,-5.8,63,30.30,10.0,North,6.9,-,N/A,,Clear,10,2013-02-20 03:35:00
9:55 PM,4.6,-5.8,62,30.31,10.0,North,6.9,-,N/A,,Clear,360,2013-02-20 03:55:00
10:15 PM,4.1,-6.0,63,30.31,10.0,North,8.1,-,N/A,,Clear,360,2013-02-20 04:15:00
10:35 PM,3.6,-6.2,64,30.32,10.0,NNW,6.9,-,N/A,,Clear,340,2013-02-20 04:35:00
10:55 PM,3.4,-6.3,64,30.33,10.0,North,4.6,-,N/A,,Clear,350,2013-02-20 04:55:00
11:15 PM,2.7,-6.5,66,30.33,10.0,North,10.4,-,N/A,,Clear,350,2013-02-20 05:15:00
11:35 PM,2.3,-6.7,66,30.34,10.0,Calm,Calm,-,N/A,,Clear,0,2013-02-20 05:35:00
11:55 PM,1.4,-7.4,67,30.34,10.0,NNW,5.8,-,N/A,,Clear,330,2013-02-20 05:55:00